Back to catalog

STARLINK-11265

AliveCommunicationsVLEO
NORAD 60909·PAYLOAD·🇺🇸 United States

Launched Aug 31, 2024 from Cape Canaveral Space Force Station

Loading…

Next Passes (next 24 hours)

TLE

FreshSource: CelesTrak SupGP

Epoch: Sep 15, 2026, 02:39 UTC

1 60909C 24154G   26258.11090278  .00048147  00000+0  39617-3 0  2581
2 60909  53.1576 277.8475 0001124  98.5044 137.2999 15.69711663    17

Track STARLINK-11265 in real time with AllMySat

Download on the App Store